{"data":{"norad_id":60379,"epoch":"2026-09-22T22:42:24.641856Z","epoch_age_seconds":72509,"freshness":"FRESH","line1":"1 60379U 24140A   26265.94611854  .00000040  00000+0  43055-4 0  9999","line2":"2 60379  88.9663 269.7702 0019515 111.4964 248.8270 13.51026091105721","mean_motion":13.51026091,"eccentricity":0.0019515,"inclination_deg":88.9663,"raan_deg":269.7702,"arg_perigee_deg":111.4964,"mean_anomaly_deg":248.827,"bstar":4.3055e-5,"rev_number":10572,"period_min":106.58565438467,"perigee_km":1053.9536267549,"apogee_km":1083.0177951958,"semimajor_km":7446.6227109753,"source":"CELESTRAK","updated_at":"2026-09-23T09:00:20.564350Z"}}